Weather History for Honolulu, HI

Change the Weather History Date:

Sunday, February 2, 2014

  Actual Average Record
Temperature  
Mean Temperature 74 °F 73 °F  
Max Temperature 80 °F 80 °F 84 °F (1962)
Min Temperature 67 °F 66 °F 53 °F (1976)
Degree Days  
Heating Degree Days 0 0  
Month to date heating degree days 0 0  
Since 1 July heating degree days 0 0  
Cooling Degree Days 9 8  
Month to date cooling degree days 18 16  
Year to date cooling degree days 264 270  
Growing Degree Days 22 (Base 50)    
Moisture  
Dew Point 63 °F    
Average Humidity 76    
Maximum Humidity 97    
Minimum Humidity 54    
Precipitation  
Precipitation T in 0.07 in 2.10 in (1989)
Month to date precipitation 0.12 0.14  
Year to date precipitation 2.57 2.45  
Snow  
Snow 0.00 in - - ()
Month to date snowfall 0.0  
Since 1 July snowfall 0.0  
Snow Depth 0.00 in    
Sea Level Pressure  
Sea Level Pressure 29.92 in    
Wind  
Wind Speed 6 mph (NNW)    
Max Wind Speed 14 mph    
Max Gust Speed 16 mph    
Visibility 10 miles    
Events      
T = Trace of Precipitation, MM = Missing Value Source: NWS Daily Summary

Daily Weather History Graph

Daily Weather History Graph

Search for Another Location

Airport:

Trip Planner

Search our weather history database for the weather conditions in past years. The results will help you decide how hot, cold, wet, or windy it might be!

Date:

Astronomy

Feb. 02, 2014 Rise Set
Actual Time 7:08 AM HST 6:22 PM HST
Civil Twilight 6:45 AM HST 6:45 PM HST
Nautical Twilight 6:18 AM HST 7:12 PM HST
Astronomical Twilight 5:52 AM HST 7:38 PM HST
Moon 9:13 AM HST (2/2) 9:43 PM HST (2/2)
Length of Visible Light 12h 00m
Length of Day
11h 14m
Waxing Crescent, 13% of the Moon is Illuminated
Feb 2
Waxing Crescent
Feb 6
First Quarter
Feb 14
Full
Feb 22
Last Quarter
Feb 28
New

Hourly Weather History & Observations

Time (HST) Temp. Dew Point Humidity Pressure Visibility Wind Dir Wind Speed Gust Speed Precip Events Conditions
12:53 AM 71.6 °F 68.0 °F 88% 29.88 in 10.0 mi Calm Calm - N/A   Overcast
1:53 AM 70.0 °F 68.0 °F 93% 29.88 in 10.0 mi Calm Calm - N/A   Mostly Cloudy
2:53 AM 69.1 °F 66.9 °F 93% 29.88 in 10.0 mi NNW 3.5 mph - N/A   Overcast
3:53 AM 69.1 °F 66.9 °F 93% 29.87 in 10.0 mi Calm Calm - 0.00 in   Overcast
4:53 AM 69.1 °F 66.0 °F 90% 29.87 in 10.0 mi NNW 3.5 mph - N/A   Scattered Clouds
5:53 AM 68.0 °F 64.9 °F 90% 29.88 in 10.0 mi Calm Calm - N/A   Partly Cloudy
6:53 AM 68.0 °F 64.0 °F 87% 29.91 in 10.0 mi North 3.5 mph - N/A   Scattered Clouds
7:53 AM 68.0 °F 64.9 °F 90% 29.92 in 10.0 mi North 3.5 mph - N/A   Scattered Clouds
8:53 AM 71.1 °F 66.0 °F 84% 29.93 in 10.0 mi Calm Calm - N/A   Scattered Clouds
9:53 AM 75.0 °F 64.0 °F 69% 29.94 in 10.0 mi North 8.1 mph - N/A   Scattered Clouds
10:53 AM 78.1 °F 62.1 °F 58% 29.94 in 10.0 mi North 5.8 mph - N/A   Scattered Clouds
11:53 AM 77.0 °F 64.9 °F 66% 29.93 in 10.0 mi SW 10.4 mph - N/A   Mostly Cloudy
12:53 PM 77.0 °F 63.0 °F 62% 29.90 in 10.0 mi SW 10.4 mph - N/A   Mostly Cloudy
1:53 PM 79.0 °F 64.0 °F 60% 29.88 in 10.0 mi SW 9.2 mph - N/A   Scattered Clouds
2:53 PM 77.0 °F 62.1 °F 60% 29.87 in 10.0 mi South 10.4 mph - N/A   Scattered Clouds
3:53 PM 78.1 °F 60.1 °F 54% 29.87 in 10.0 mi SSE 10.4 mph - N/A   Mostly Cloudy
4:53 PM 78.1 °F 61.0 °F 56% 29.89 in 10.0 mi ESE 11.5 mph - N/A   Scattered Clouds
5:53 PM 75.9 °F 62.1 °F 62% 29.91 in 10.0 mi East 8.1 mph - N/A   Scattered Clouds
6:53 PM 73.9 °F 62.1 °F 66% 29.94 in 10.0 mi NNE 6.9 mph - N/A   Mostly Cloudy
7:53 PM 73.0 °F 61.0 °F 66% 29.97 in 10.0 mi North 6.9 mph - N/A   Scattered Clouds
8:53 PM 73.0 °F 61.0 °F 66% 29.99 in 10.0 mi North 5.8 mph - N/A   Scattered Clouds
9:53 PM 73.0 °F 57.9 °F 59% 29.99 in 10.0 mi NNW 6.9 mph - N/A   Scattered Clouds
10:53 PM 72.0 °F 59.0 °F 64% 30.00 in 10.0 mi NNW 5.8 mph - N/A   Mostly Cloudy
11:53 PM 72.0 °F 59.0 °F 64% 29.99 in 10.0 mi NW 8.1 mph - N/A   Mostly Cloudy